SCP
0 0 0 0 0 0 0 0 0 0 0 0 -0 -0 0 -0 -0 -0 -0 0 0 0 0 1 1 0 0 0 0 0 0 0 0 0 0 0 0 0 0 0 0 0 0
0 0 0 0 0 0 0 0 0 0 0 0 0 0 0 -0 -0 -0 -0 -0 0 0 0 0 0 0 0 0 0 0 0 0 0 0 0 0 0 0 0 0 0 0 0
0 0 0 0 0 0 0 0 0 0 0 0 0 0 0 0 -0 -0 -0 -0 -0 -0 0 0 0 0 0 0 0 0 0 0 0 0 0 0 0 0 0 0 0 0 0
0 0 0 0 0 0 0 0 0 0 0 0 0 0 0 0 0 -0 -0 -0 -0 -0 0 0 0 0 0 0 0 0 0 0 0 0 0 0 0 0 0 0 0 0 0
0 0 0 0 0 0 0 0 0 0 0 0 0 0 0 0 0 0 -0 -0 -0 -0 -0 -0 0 0 0 0 0 0 0 0 0 0 0 0 0 0 0 0 0 0 0
0 0 0 0 0 0 0 0 0 0 0 0 0 0 0 0 0 0 0 -0 -0 -0 -0 -0 -0 0 0 0 0 0 0 0 0 0 0 0 0 0 0 0 0 0 0
0 0 0 0 0 0 0 0 0 0 0 0 0 0 0 0 0 0 0 -0 -0 -0 -0 -0 -0 0 0 0 0 0 0 0 0 0 0 0 0 0 0 0 0 0 0
0 0 0 0 0 0 0 0 0 0 0 0 0 0 0 0 0 0 0 0 -0 -0 -0 -0 -0 -0 0 0 0 0 0 0 0 0 0 0 0 0 0 0 0 0 0
0 0 0 0 0 0 0 0 0 0 0 0 0 0 0 0 0 0 0 0 0 -0 -0 -0 -0 -1 -0 0 0 0 0 0 0 0 0 0 0 0 0 0 0 0 0
0 0 0 0 0 0 0 0 0 0 0 0 0 0 0 0 0 0 0 0 0 0 0 -0 -0 -0 -0 -0 0 0 0 0 0 0 0 0 0 0 0 0 0 0 0
0 0 0 0 0 0 0 0 0 0 0 0 0 0 0 0 0 0 0 0 0 0 0 -0 -0 -0 -0 -0 0 0 0 0 0 0 0 0 0 0 0 0 0 0 0
0 0 0 0 0 0 0 0 0 0 0 0 0 0 0 0 0 0 0 0 0 0 -0 0 -0 -0 -0 -0 -0 0 0 0 0 0 0 0 0 0 0 0 0 0 0
0 0 0 0 0 0 0 0 0 0 0 0 0 0 0 0 0 0 0 0 0 0 0 0 0 -0 -0 -0 0 0 0 0 0 0 0 0 0 0 0 0 0 0 0
0 0 0 0 0 0 0 0 0 0 0 0 0 0 0 0 0 0 0 0 0 0 0 0 -0 -0 -0 -0 -0 0 0 0 0 0 0 0 0 0 0 0 0 0 0
0 0 0 0 0 0 0 0 0 0 0 0 0 0 0 0 -0 -0 0 0 0 0 0 -0 -0 -0 0 0 0 0 0 0 0 0 0 0 0 0 0 0 0 0 0
0 0 0 0 0 0 0 0 0 0 0 0 0 0 0 -0 -0 -0 -0 -0 -0 0 -0 -0 -0 0 0 0 0 0 0 0 0 0 0 0 0 0 0 0 0 0 0
0 0 0 0 0 0 0 0 0 0 0 0 0 0 0 0 -0 -0 0 0 0 -0 -0 -0 0 0 0 0 0 0 0 0 0 0 0 0 0 0 0 0 0 0 0
0 0 0 0 0 0 0 0 0 0 0 0 0 0 0 0 -0 0 0 0 -0 0 -0 0 0 0 0 0 0 0 0 0 0 0 0 0 0 0 0 0 0 0 0
0 0 0 0 0 0 0 0 0 0 0 0 0 0 0 0 0 0 0 0 0 0 0 0 0 0 0 0 0 0 0 0 0 0 0 0 0 0 0 0 0 0 0
0 0 0 0 0 0 0 0 0 0 0 0 0 0 0 -0 -0 -0 -0 -0 -0 -0 0 0 0 0 0 -0 -0 0 0 0 0 0 0 0 0 0 0 0 0 0 0
0 0 0 0 0 0 0 0 0 0 0 0 0 0 0 -0 -0 -0 0 -0 -0 0 0 0 0 0 -0 -0 -0 0 0 0 0 0 0 0 0 0 0 0 0 0 0
0 0 0 0 0 0 0 0 0 0 0 0 0 0 0 0 -0 0 0 -0 0 0 0 0 0 -0 0 -0 -0 -0 0 0 0 0 0 0 0 0 0 0 0 0 0
0 0 0 0 0 0 0 0 0 0 0 0 0 0 0 -0 0 0 0 0 0 0 0 0 0 0 0 0 -0 -0 -0 -0 0 0 -0 -0 -0 -0 -0 -0 -0 0 0
0 0 0 0 0 0 0 0 0 0 0 0 0 0 0 -0 -0 -0 -0 -0 -0 -0 0 0 0 0 0 0 0 0 0 -0 -0 -0 -0 -0 -0 -0 -0 0 0 0 0
0 0 0 0 0 0 0 0 0 0 0 0 0 0 0 0 -0 -0 -0 -0 -0 -0 -0 -0 0 0 0 0 0 0 0 0 -0 -0 -0 0 0 0 0 -0 -0 0 0
0 0 0 0 0 0 0 0 0 0 0 0 0 0 0 0 0 -0 0 -0 -0 0 0 0 -0 0 0 -0 0 0 0 0 0 0 0 0 0 0 -0 0 0 0 0
Wind_Speed_500mb
31 33 35 39 47 53 57 65 67 69 68 77 81 80 78 79 76 86 94 78 67 47 44 105 108 99 103 98 98 90 83 73 63 51 43 41 45 52 53 50 45 40 40
32 37 38 39 44 54 60 67 73 75 77 70 74 83 81 78 78 88 100 116 102 93 51 32 28 98 104 105 104 100 93 84 76 72 56 44 49 51 48 48 40 44 49
33 39 44 48 47 54 60 65 72 79 78 78 73 76 84 84 81 75 90 97 109 108 97 84 61 57 109 106 107 109 99 97 85 82 63 30 31 52 59 59 53 53 56
34 40 47 49 57 63 60 67 74 77 81 76 70 65 73 86 84 84 81 88 88 100 107 101 72 74 42 116 112 111 108 98 98 89 87 62 41 43 38 64 63 61 61
30 44 47 52 65 59 66 69 69 78 70 73 71 69 72 75 84 82 87 84 77 82 92 109 83 86 75 73 118 113 118 110 102 99 97 88 57 51 59 55 71 68 62
39 50 45 57 60 65 69 67 71 73 78 71 71 72 70 72 74 78 81 91 84 72 64 92 105 100 72 47 112 126 120 119 102 103 97 102 98 80 71 55 74 73 66
41 46 57 63 65 69 69 69 79 82 76 75 71 66 68 70 72 79 80 81 78 77 60 57 87 96 84 90 103 110 128 123 116 108 100 98 101 92 81 73 76 76 62
54 55 57 61 71 72 70 75 76 73 73 79 70 68 68 72 72 72 78 79 76 74 74 54 54 76 83 87 102 56 130 116 112 111 101 97 97 96 92 80 78 62 56
48 54 58 62 66 70 77 71 71 81 96 68 66 77 84 72 70 71 77 76 75 76 80 62 56 63 67 82 95 58 98 119 112 111 104 102 99 95 96 96 79 82 62
47 53 60 63 68 66 68 74 90 94 68 68 67 80 76 73 70 71 74 72 76 70 71 64 63 70 62 76 71 64 55 106 110 116 109 103 101 99 88 92 87 84 82
50 57 61 64 64 66 76 79 87 68 70 69 75 76 75 71 62 63 64 62 68 69 72 67 72 75 68 70 72 76 53 83 111 113 100 102 100 99 101 93 87 82 84
53 57 61 68 69 83 81 87 74 69 60 75 78 60 64 61 56 57 59 67 68 69 71 70 64 79 66 61 76 80 66 55 120 113 102 102 99 97 103 98 93 93 91
53 60 69 69 72 80 84 76 70 62 76 76 72 58 56 56 57 65 63 63 67 68 64 56 60 82 78 72 64 72 55 52 116 113 105 106 104 105 105 103 97 96 94
51 57 68 74 82 80 80 66 67 72 72 68 67 60 57 60 60 64 68 66 65 65 58 50 59 75 65 50 49 61 35 74 93 103 107 114 107 110 104 107 105 100 93
49 57 68 76 79 85 76 70 69 68 70 60 64 62 62 64 68 68 67 61 62 60 58 47 54 66 41 43 36 42 37 72 70 88 98 103 101 108 112 106 101 94 84
49 56 72 76 80 80 71 73 73 72 55 56 60 62 63 65 66 66 63 58 59 55 47 58 68 42 32 33 25 38 44 63 93 75 66 64 68 80 71 61 54 54 69
41 55 66 70 72 74 69 72 71 56 53 53 53 55 57 60 62 61 58 55 53 50 45 54 36 21 18 14 17 28 53 59 63 70 66 70 77 86 93 88 86 82 75
40 48 57 61 62 63 61 65 62 54 49 50 51 49 50 51 56 56 53 48 42 40 38 16 7 17 31 19 38 58 73 89 106 110 115 112 101 88 86 91 92 88 76
32 43 51 52 56 57 58 60 57 54 49 50 52 50 50 50 49 47 47 40 35 34 17 22 33 50 68 60 76 84 100 110 107 100 93 89 90 86 86 90 93 85 75
35 40 45 45 48 49 51 54 54 54 54 54 51 48 49 50 46 42 34 29 27 19 24 39 49 54 74 79 90 103 107 107 96 94 88 81 82 74 68 74 78 79 71
33 38 40 39 41 41 43 46 52 54 52 52 47 46 44 44 41 35 30 28 34 39 42 46 50 62 70 82 84 99 107 107 101 97 87 72 67 61 57 55 57 59 59
32 35 34 35 35 34 35 36 42 47 48 49 42 40 42 39 35 31 29 29 36 45 51 53 59 62 67 79 79 81 87 91 98 96 85 66 50 52 53 54 53 50 46
31 33 28 28 28 26 29 27 32 36 43 47 52 45 39 34 31 30 33 37 37 45 53 60 62 61 64 69 71 75 74 73 80 77 71 63 56 53 50 47 44 40 36
29 31 29 25 22 18 23 17 25 29 31 38 43 48 48 43 37 37 41 45 52 54 57 60 66 67 68 68 63 63 64 63 67 65 59 54 49 42 40 39 38 34 29
32 31 30 24 21 15 11 16 17 24 29 31 35 38 40 41 41 44 44 44 49 52 58 63 63 61 63 61 55 49 50 52 53 52 51 49 42 40 37 34 30 26 23
33 32 32 31 23 20 12 8 12 18 24 26 30 35 34 34 35 38 43 47 47 49 51 52 57 61 60 52 47 43 42 44 43 42 43 42 37 31 29 24 21 19 15
Wind_Direction_500mb
327 326 323 325 324 326 328 323 324 325 328 323 321 316 316 314 310 289 287 294 308 308 267 236 235 239 231 234 232 227 229 227 228 219 224 229 230 229 231 232 236 235 233
323 325 324 325 323 321 323 323 321 325 324 322 317 313 315 312 311 309 292 289 293 294 305 296 299 236 226 229 228 228 223 226 224 206 208 212 225 232 228 229 226 221 220
321 322 325 328 327 322 323 318 317 321 321 318 314 312 311 313 314 309 298 298 291 284 296 299 306 297 225 224 221 224 221 217 216 216 201 188 210 209 214 215 217 217 219
315 316 319 322 322 322 319 314 316 321 321 320 312 308 306 307 310 309 305 298 295 299 288 290 301 297 290 224 219 221 219 220 213 210 215 214 196 178 183 205 213 216 219
314 312 317 316 319 320 320 320 317 319 317 313 308 306 303 302 305 307 305 300 298 297 289 286 292 305 302 255 219 220 219 219 216 215 212 209 198 189 189 192 203 214 218
307 312 311 318 318 318 320 317 316 316 316 313 309 307 303 302 300 300 303 305 303 293 296 277 284 291 302 320 222 223 227 213 215 222 219 218 205 201 204 196 197 201 201
315 327 319 322 319 321 317 312 314 317 317 315 309 304 301 297 295 295 298 300 296 290 290 293 287 293 292 302 297 221 215 211 216 221 219 226 222 209 206 209 194 191 198
316 320 321 319 321 319 316 315 315 316 316 315 308 305 304 301 298 293 297 296 292 287 285 293 292 287 292 301 287 273 209 209 214 222 219 220 226 221 213 209 201 186 190
325 326 323 323 320 317 319 316 314 310 317 314 308 302 305 304 297 292 295 294 290 282 281 284 281 274 279 289 284 295 216 208 213 217 223 217 222 227 223 220 217 212 192
329 330 329 324 320 320 318 311 312 319 320 317 313 309 310 305 296 293 294 291 291 287 287 287 276 270 272 277 276 287 284 212 217 214 221 221 218 222 221 221 221 225 223
332 330 326 328 323 320 319 317 323 324 317 319 315 309 309 310 301 299 295 293 291 286 282 282 279 272 276 278 279 273 288 219 212 214 213 219 217 218 220 221 223 223 225
328 330 327 327 326 325 325 325 326 323 321 317 322 319 316 314 306 299 293 295 298 292 282 285 286 280 272 271 274 272 275 251 218 210 208 214 212 215 222 221 223 224 226
331 329 329 328 327 327 327 325 326 322 316 325 332 325 317 316 301 298 305 309 308 301 292 286 283 280 287 268 265 268 294 241 207 211 218 217 214 215 218 220 224 225 225
329 330 329 328 329 329 329 330 320 323 323 329 332 329 320 313 313 313 311 310 309 307 299 293 284 275 269 264 266 270 305 232 210 209 210 210 217 217 219 220 222 221 211
332 329 327 328 330 332 335 329 325 323 329 330 332 330 327 323 318 317 317 316 314 311 302 291 286 287 259 271 268 274 263 213 195 193 204 209 213 210 211 212 204 204 195
331 326 327 330 333 334 331 332 333 329 338 335 332 330 328 325 326 327 329 324 319 318 317 299 292 286 249 263 257 261 227 202 204 197 192 187 189 194 189 176 170 172 168
323 323 326 329 332 333 333 335 336 341 340 334 331 332 332 331 333 333 332 333 332 328 311 304 293 276 249 249 227 202 171 158 152 150 150 143 141 139 132 126 130 133 136
321 324 327 328 335 334 339 338 346 345 339 337 333 334 332 336 338 338 341 346 342 340 339 335 39 143 142 134 173 163 144 135 131 133 131 131 132 131 131 134 132 128 127
321 327 332 331 339 342 346 347 354 352 349 344 346 344 344 344 345 350 355 353 356 356 22 80 110 125 133 142 145 141 130 128 124 126 128 130 128 133 137 136 131 129 129
319 328 334 333 340 347 352 357 360 2 4 360 356 356 354 353 356 358 3 7 25 46 82 95 100 108 119 144 138 130 129 122 122 119 118 119 121 124 126 125 129 131 132
313 326 334 332 340 346 357 4 10 11 12 3 5 8 7 5 6 9 24 49 74 85 89 95 98 104 117 130 129 122 121 119 120 115 111 108 111 117 123 121 125 122 127
310 321 330 329 335 342 359 6 18 19 24 15 14 18 21 16 20 30 48 59 73 84 91 95 95 99 105 115 118 118 118 122 119 114 115 120 116 110 115 117 113 116 122
304 313 316 327 326 341 355 11 25 21 33 29 27 30 33 35 39 51 63 73 78 82 87 93 99 101 104 105 109 111 115 112 110 111 109 111 112 112 111 106 107 112 114
294 299 297 316 313 336 357 17 34 34 27 45 39 36 46 51 58 64 71 76 81 84 88 92 94 97 98 101 105 107 102 97 98 103 111 113 111 107 104 111 114 113 115
283 288 287 290 294 300 351 34 46 47 40 40 48 52 50 55 62 66 69 76 81 85 92 96 98 99 97 94 94 100 107 106 106 110 113 113 111 112 113 116 119 122 119
276 279 278 277 277 270 279 334 55 56 54 46 46 42 46 60 65 70 80 79 81 84 88 87 91 92 94 103 111 114 109 106 106 109 111 109 109 110 111 112 114 111 112
Wind_Speed_850mb
31 33 35 39 47 53 57 65 67 69 68 77 81 80 78 79 76 86 94 78 67 47 44 105 108 99 103 98 98 90 83 73 63 51 43 41 45 52 53 50 45 40 40
32 37 38 39 44 54 60 67 73 75 77 70 74 83 81 78 78 88 100 116 102 93 51 32 28 98 104 105 104 100 93 84 76 72 56 44 49 51 48 48 40 44 49
33 39 44 48 47 54 60 65 72 79 78 78 73 76 84 84 81 75 90 97 109 108 97 84 61 57 109 106 107 109 99 97 85 82 63 30 31 52 59 59 53 53 56
34 40 47 49 57 63 60 67 74 77 81 76 70 65 73 86 84 84 81 88 88 100 107 101 72 74 42 116 112 111 108 98 98 89 87 62 41 43 38 64 63 61 61
30 44 47 52 65 59 66 69 69 78 70 73 71 69 72 75 84 82 87 84 77 82 92 109 83 86 75 73 118 113 118 110 102 99 97 88 57 51 59 55 71 68 62
39 50 45 57 60 65 69 67 71 73 78 71 71 72 70 72 74 78 81 91 84 72 64 92 105 100 72 47 112 126 120 119 102 103 97 102 98 80 71 55 74 73 66
41 46 57 63 65 69 69 69 79 82 76 75 71 66 68 70 72 79 80 81 78 77 60 57 87 96 84 90 103 110 128 123 116 108 100 98 101 92 81 73 76 76 62
54 55 57 61 71 72 70 75 76 73 73 79 70 68 68 72 72 72 78 79 76 74 74 54 54 76 83 87 102 56 130 116 112 111 101 97 97 96 92 80 78 62 56
48 54 58 62 66 70 77 71 71 81 96 68 66 77 84 72 70 71 77 76 75 76 80 62 56 63 67 82 95 58 98 119 112 111 104 102 99 95 96 96 79 82 62
47 53 60 63 68 66 68 74 90 94 68 68 67 80 76 73 70 71 74 72 76 70 71 64 63 70 62 76 71 64 55 106 110 116 109 103 101 99 88 92 87 84 82
50 57 61 64 64 66 76 79 87 68 70 69 75 76 75 71 62 63 64 62 68 69 72 67 72 75 68 70 72 76 53 83 111 113 100 102 100 99 101 93 87 82 84
53 57 61 68 69 83 81 87 74 69 60 75 78 60 64 61 56 57 59 67 68 69 71 70 64 79 66 61 76 80 66 55 120 113 102 102 99 97 103 98 93 93 91
53 60 69 69 72 80 84 76 70 62 76 76 72 58 56 56 57 65 63 63 67 68 64 56 60 82 78 72 64 72 55 52 116 113 105 106 104 105 105 103 97 96 94
51 57 68 74 82 80 80 66 67 72 72 68 67 60 57 60 60 64 68 66 65 65 58 50 59 75 65 50 49 61 35 74 93 103 107 114 107 110 104 107 105 100 93
49 57 68 76 79 85 76 70 69 68 70 60 64 62 62 64 68 68 67 61 62 60 58 47 54 66 41 43 36 42 37 72 70 88 98 103 101 108 112 106 101 94 84
49 56 72 76 80 80 71 73 73 72 55 56 60 62 63 65 66 66 63 58 59 55 47 58 68 42 32 33 25 38 44 63 93 75 66 64 68 80 71 61 54 54 69
41 55 66 70 72 74 69 72 71 56 53 53 53 55 57 60 62 61 58 55 53 50 45 54 36 21 18 14 17 28 53 59 63 70 66 70 77 86 93 88 86 82 75
40 48 57 61 62 63 61 65 62 54 49 50 51 49 50 51 56 56 53 48 42 40 38 16 7 17 31 19 38 58 73 89 106 110 115 112 101 88 86 91 92 88 76
32 43 51 52 56 57 58 60 57 54 49 50 52 50 50 50 49 47 47 40 35 34 17 22 33 50 68 60 76 84 100 110 107 100 93 89 90 86 86 90 93 85 75
35 40 45 45 48 49 51 54 54 54 54 54 51 48 49 50 46 42 34 29 27 19 24 39 49 54 74 79 90 103 107 107 96 94 88 81 82 74 68 74 78 79 71
33 38 40 39 41 41 43 46 52 54 52 52 47 46 44 44 41 35 30 28 34 39 42 46 50 62 70 82 84 99 107 107 101 97 87 72 67 61 57 55 57 59 59
32 35 34 35 35 34 35 36 42 47 48 49 42 40 42 39 35 31 29 29 36 45 51 53 59 62 67 79 79 81 87 91 98 96 85 66 50 52 53 54 53 50 46
31 33 28 28 28 26 29 27 32 36 43 47 52 45 39 34 31 30 33 37 37 45 53 60 62 61 64 69 71 75 74 73 80 77 71 63 56 53 50 47 44 40 36
29 31 29 25 22 18 23 17 25 29 31 38 43 48 48 43 37 37 41 45 52 54 57 60 66 67 68 68 63 63 64 63 67 65 59 54 49 42 40 39 38 34 29
32 31 30 24 21 15 11 16 17 24 29 31 35 38 40 41 41 44 44 44 49 52 58 63 63 61 63 61 55 49 50 52 53 52 51 49 42 40 37 34 30 26 23
33 32 32 31 23 20 12 8 12 18 24 26 30 35 34 34 35 38 43 47 47 49 51 52 57 61 60 52 47 43 42 44 43 42 43 42 37 31 29 24 21 19 15
Wind_Direction_850mb
327 326 323 325 324 326 328 323 324 325 328 323 321 316 316 314 310 289 287 294 308 308 267 236 235 239 231 234 232 227 229 227 228 219 224 229 230 229 231 232 236 235 233
323 325 324 325 323 321 323 323 321 325 324 322 317 313 315 312 311 309 292 289 293 294 305 296 299 236 226 229 228 228 223 226 224 206 208 212 225 232 228 229 226 221 220
321 322 325 328 327 322 323 318 317 321 321 318 314 312 311 313 314 309 298 298 291 284 296 299 306 297 225 224 221 224 221 217 216 216 201 188 210 209 214 215 217 217 219
315 316 319 322 322 322 319 314 316 321 321 320 312 308 306 307 310 309 305 298 295 299 288 290 301 297 290 224 219 221 219 220 213 210 215 214 196 178 183 205 213 216 219
314 312 317 316 319 320 320 320 317 319 317 313 308 306 303 302 305 307 305 300 298 297 289 286 292 305 302 255 219 220 219 219 216 215 212 209 198 189 189 192 203 214 218
307 312 311 318 318 318 320 317 316 316 316 313 309 307 303 302 300 300 303 305 303 293 296 277 284 291 302 320 222 223 227 213 215 222 219 218 205 201 204 196 197 201 201
315 327 319 322 319 321 317 312 314 317 317 315 309 304 301 297 295 295 298 300 296 290 290 293 287 293 292 302 297 221 215 211 216 221 219 226 222 209 206 209 194 191 198
316 320 321 319 321 319 316 315 315 316 316 315 308 305 304 301 298 293 297 296 292 287 285 293 292 287 292 301 287 273 209 209 214 222 219 220 226 221 213 209 201 186 190
325 326 323 323 320 317 319 316 314 310 317 314 308 302 305 304 297 292 295 294 290 282 281 284 281 274 279 289 284 295 216 208 213 217 223 217 222 227 223 220 217 212 192
329 330 329 324 320 320 318 311 312 319 320 317 313 309 310 305 296 293 294 291 291 287 287 287 276 270 272 277 276 287 284 212 217 214 221 221 218 222 221 221 221 225 223
332 330 326 328 323 320 319 317 323 324 317 319 315 309 309 310 301 299 295 293 291 286 282 282 279 272 276 278 279 273 288 219 212 214 213 219 217 218 220 221 223 223 225
328 330 327 327 326 325 325 325 326 323 321 317 322 319 316 314 306 299 293 295 298 292 282 285 286 280 272 271 274 272 275 251 218 210 208 214 212 215 222 221 223 224 226
331 329 329 328 327 327 327 325 326 322 316 325 332 325 317 316 301 298 305 309 308 301 292 286 283 280 287 268 265 268 294 241 207 211 218 217 214 215 218 220 224 225 225
329 330 329 328 329 329 329 330 320 323 323 329 332 329 320 313 313 313 311 310 309 307 299 293 284 275 269 264 266 270 305 232 210 209 210 210 217 217 219 220 222 221 211
332 329 327 328 330 332 335 329 325 323 329 330 332 330 327 323 318 317 317 316 314 311 302 291 286 287 259 271 268 274 263 213 195 193 204 209 213 210 211 212 204 204 195
331 326 327 330 333 334 331 332 333 329 338 335 332 330 328 325 326 327 329 324 319 318 317 299 292 286 249 263 257 261 227 202 204 197 192 187 189 194 189 176 170 172 168
323 323 326 329 332 333 333 335 336 341 340 334 331 332 332 331 333 333 332 333 332 328 311 304 293 276 249 249 227 202 171 158 152 150 150 143 141 139 132 126 130 133 136
321 324 327 328 335 334 339 338 346 345 339 337 333 334 332 336 338 338 341 346 342 340 339 335 39 143 142 134 173 163 144 135 131 133 131 131 132 131 131 134 132 128 127
321 327 332 331 339 342 346 347 354 352 349 344 346 344 344 344 345 350 355 353 356 356 22 80 110 125 133 142 145 141 130 128 124 126 128 130 128 133 137 136 131 129 129
319 328 334 333 340 347 352 357 360 2 4 360 356 356 354 353 356 358 3 7 25 46 82 95 100 108 119 144 138 130 129 122 122 119 118 119 121 124 126 125 129 131 132
313 326 334 332 340 346 357 4 10 11 12 3 5 8 7 5 6 9 24 49 74 85 89 95 98 104 117 130 129 122 121 119 120 115 111 108 111 117 123 121 125 122 127
310 321 330 329 335 342 359 6 18 19 24 15 14 18 21 16 20 30 48 59 73 84 91 95 95 99 105 115 118 118 118 122 119 114 115 120 116 110 115 117 113 116 122
304 313 316 327 326 341 355 11 25 21 33 29 27 30 33 35 39 51 63 73 78 82 87 93 99 101 104 105 109 111 115 112 110 111 109 111 112 112 111 106 107 112 114
294 299 297 316 313 336 357 17 34 34 27 45 39 36 46 51 58 64 71 76 81 84 88 92 94 97 98 101 105 107 102 97 98 103 111 113 111 107 104 111 114 113 115
283 288 287 290 294 300 351 34 46 47 40 40 48 52 50 55 62 66 69 76 81 85 92 96 98 99 97 94 94 100 107 106 106 110 113 113 111 112 113 116 119 122 119
276 279 278 277 277 270 279 334 55 56 54 46 46 42 46 60 65 70 80 79 81 84 88 87 91 92 94 103 111 114 109 106 106 109 111 109 109 110 111 112 114 111 112